Regional Weather Roundup
Issued by NWS

Home | Current Version | Previous Version | Graphics & Text | Print | Product List | Glossary On
Versions: 1 2 3 4 5 6 7 8 9 10 11 12 13 14 15 16 17 18 19 20 21 22 23 24 25 26 27 28 29 30 31 32 33 34 35 36 37 38 39 40 41 42 43 44 45 46 47 48 49 50
000
ASUS43 KOAX 092002
RWRNE

WEATHER ROUNDUP FOR NEBRASKA
NATIONAL WEATHER SERVICE OMAHA NE
200 PM CST TUE FEB 09 2016

NOTES: SATELLITE DATA IS BEING USED TO AUGMENT CLOUD COVER ABOVE
       12000 FEET.
       "FAIR" INDICATES FEW OR NO CLOUDS BELOW 12,000 FEET WITH NO
       SIGNIFICANT WEATHER AND/OR OBSTRUCTIONS TO VISIBILITY.

  * THESE STATIONS DO NOT REPORT WEATHER SUCH AS RAIN...SNOW OR FOG.

NEZ001>004-019>022-054>056-092100-
NEBRASKA PANHANDLE

CITY           SKY/WX    TMP DP  RH WIND       PRES   REMARKS
SCOTTSBLUFF    SUNNY     50  32  50 NW18G30   30.23F
ALLIANCE       CLOUDY    38  31  76 W10       30.20F WCI  31
CHADRON        CLOUDY    49  32  52 NW16G22   30.19F
KIMBALL        SUNNY     45  30  55 NW15      30.26F
SIDNEY         CLOUDY    43  30  60 NW18      30.24F
$$

NEZ057>060-069>072-079>082-092100-
SOUTHWEST NEBRASKA

CITY           SKY/WX    TMP DP  RH WIND       PRES   REMARKS
NORTH PLATTE   CLOUDY    35  17  47 CALM      30.24F
IMPERIAL       CLOUDY    39  27  62 CALM      30.23F
MCCOOK         CLOUDY    38  19  46 CALM      30.26F
$$

NEZ005>010-023>029-035>040-094-092100-
NORTH CENTRAL NEBRASKA

CITY           SKY/WX    TMP DP  RH WIND       PRES   REMARKS
VALENTINE      CLOUDY    30  17  58 SW9       30.21F WCI  22
AINSWORTH      CLOUDY    29  11  45 SW8       30.21F WCI  21
BROKEN BOW     CLOUDY    27  11  51 CALM      30.24F
ORD            CLOUDY    28  10  46 N6        30.24F WCI  22
$$

NEZ041-046>049-061>064-073>077-083>087-092100-
SOUTH CENTRAL NEBRASKA

CITY           SKY/WX    TMP DP  RH WIND       PRES   REMARKS
GRAND ISLAND   CLOUDY    25  11  55 N12       30.29F WCI  14
HASTINGS       CLOUDY    27  11  51 N15       30.28F WCI  15
HEBRON         CLOUDY    28  11  49 N17G24    30.30F WCI  15
$$

NEZ011>018-030>034-042>045-092100-
NORTHEAST NEBRASKA

CITY           SKY/WX    TMP DP  RH WIND       PRES   REMARKS
NORFOLK        CLOUDY    27  13  55 NW13      30.22F WCI  16
BLAIR          SUNNY     20   7  56 NW7       30.22F WCI  11
COLUMBUS *     CLOUDY    27   7  43 NW14      30.26F WCI  15
FREMONT        MOSUNNY   22   8  54 W10       30.25F WCI  11
TEKAMAH        PTSUNNY   30   7  37 N10       30.25F WCI  21
$$

NEZ050>053-065>068-078-088>093-092100-
SOUTHEAST NEBRASKA

CITY           SKY/WX    TMP DP  RH WIND       PRES   REMARKS
LINCOLN        CLOUDY    24  10  55 N14       30.28F WCI  12
OMAHA EPPLEY   MOSUNNY   21   9  59 NW17      30.24F WCI   7
BEATRICE       CLOUDY    26   9  49 N20       30.28F WCI  12
FALLS CITY     SUNNY     25   5  42 NW20G28   30.24F WCI  11
$$

NEZ044-045-051>053-067-092100-
OMAHA AREA

CITY           SKY/WX    TMP DP  RH WIND       PRES   REMARKS
OMAHA EPPLEY   MOSUNNY   21   9  59 NW17      30.24F WCI   7
BLAIR          SUNNY     20   7  56 NW7       30.22F WCI  11
FREMONT        MOSUNNY   22   8  54 W10       30.25F WCI  11
OFFUTT AFB     SUNNY     23   4  45 NW13G25   30.23F WCI  11
$$



USA.gov is the U.S. government's official web portal to all federal, state and local government web resources and services.